Location: Krakow
(50.0212°N, 19.9423°E)
Time: 17:00:42
(UTC+01:00)

ARIANE 6 FM1 Upper Stage - Pass Details

Date: 21 December 2025
Orbit: 522 x 610 km, 62.0° (Epoch: 17 January)

Event Time Altitude Azimuth Distance (km) Brightness Sun altitude
Exits shadow 06:03:13 24° 289° (WNW) 1,122 3.6 -13.9°
Maximum altitude 06:04:42 32° 329° (NNW) 929 3.4 -13.7°
Drops below altitude 10° 06:08:17 10° 34° (NNE) 1,769 5.4 -13.2°
Sets 06:10:39 0° 44° (NE) 2,659 6.4 -12.8°
